EHI
67 81 91 95 95 84 60 36 19 7 3 4 4 3 2 1 0 0 0 0 0 0 0 0 0 0 0 0 0 0 0 0 0 0 0 0 0 0 0 0 0 0 0
78 86 94 96 93 80 54 32 20 12 8 9 6 3 2 1 0 0 0 0 0 0 0 0 0 0 0 0 0 0 0 0 0 0 0 0 0 0 0 0 0 0 0
87 92 96 96 91 74 49 30 21 17 13 12 10 5 2 1 0 0 0 0 0 0 0 0 0 0 0 0 0 0 0 0 0 0 0 0 0 0 0 0 0 0 0
90 93 96 94 87 69 46 28 21 16 10 8 9 6 2 0 0 0 0 0 0 0 1 0 0 0 0 0 0 0 0 0 0 0 0 0 0 0 0 0 0 0 0
89 90 91 88 77 57 35 21 14 8 3 3 4 4 2 0 0 0 0 0 0 1 2 1 0 0 0 0 0 0 0 0 0 0 0 0 0 0 0 0 0 0 0
80 78 75 68 54 35 19 10 5 2 0 0 1 1 1 0 0 0 0 0 0 0 1 0 0 0 0 0 0 0 0 0 0 0 0 0 0 0 0 0 0 0 0
58 53 46 37 25 15 7 3 1 0 0 0 0 0 0 0 0 0 0 0 0 0 0 0 0 0 0 0 0 0 0 0 0 0 0 0 0 0 0 0 0 0 0
28 24 18 12 6 3 2 1 0 0 0 0 0 0 0 0 0 0 0 0 0 0 0 0 0 0 0 0 0 0 0 0 0 0 0 0 0 0 0 0 0 0 0
7 5 3 2 0 0 0 0 0 0 0 0 0 0 0 0 0 0 0 0 0 0 0 0 0 0 0 0 0 0 0 0 0 0 0 0 0 0 0 0 0 0 0
0 0 0 0 0 0 0 0 0 0 0 0 0 0 0 0 0 0 0 0 0 0 0 0 0 0 0 0 0 0 0 0 0 0 0 0 0 0 0 0 0 0 0
0 0 0 0 0 0 0 0 0 0 0 0 0 0 0 0 0 0 0 0 0 0 0 0 0 0 0 0 0 0 0 0 0 0 0 0 0 0 0 0 0 0 0
0 0 0 0 0 0 0 0 0 0 0 0 0 0 0 0 0 0 0 0 0 0 0 0 0 0 0 0 0 0 0 0 0 0 0 0 0 0 0 0 0 0 0
0 0 0 0 0 0 0 0 0 0 0 0 0 0 0 0 0 0 0 0 0 0 0 0 0 0 0 0 0 0 0 0 0 0 0 0 0 0 0 0 0 0 0
0 0 0 0 0 0 0 0 0 0 0 0 0 0 0 0 0 0 0 0 0 0 0 0 0 0 0 0 0 0 0 0 0 0 0 0 0 0 0 0 0 0 0
0 0 0 0 0 0 0 0 0 0 0 0 0 0 0 0 0 0 0 0 0 0 0 0 0 0 0 0 0 0 0 0 0 0 0 0 0 0 0 0 0 0 0
0 0 0 0 0 0 0 0 0 0 0 0 0 0 0 0 0 0 0 0 0 0 0 0 0 0 0 0 0 0 0 0 0 0 0 0 0 0 0 0 0 0 0
0 0 0 0 0 0 0 0 0 0 0 0 0 0 0 0 0 0 0 0 0 0 0 0 0 0 0 0 0 0 0 0 0 0 0 0 0 0 0 0 0 0 0
0 0 0 0 0 0 0 0 0 0 0 0 0 0 0 0 0 0 0 0 0 0 0 0 0 0 0 0 0 0 0 0 0 0 0 0 0 0 0 0 0 0 0
0 0 0 0 0 0 0 0 0 0 0 0 0 0 0 0 0 0 0 0 0 0 0 0 0 0 0 0 0 0 0 0 0 0 0 0 0 0 0 0 0 0 0
0 0 0 0 0 0 0 0 0 0 0 0 0 0 0 0 0 0 0 0 0 0 0 0 0 0 0 0 0 0 0 0 0 0 0 0 0 0 0 0 0 0 0
0 0 0 0 0 0 0 0 0 0 0 0 0 0 0 0 0 0 0 0 0 0 0 0 0 0 0 0 0 0 0 0 0 0 0 0 0 0 0 0 0 0 0
0 0 0 0 0 0 0 0 0 0 0 0 0 0 0 0 0 0 0 0 0 0 0 0 0 0 0 0 0 0 0 0 0 0 0 0 0 0 0 0 0 0 0
0 0 0 0 0 0 0 0 0 0 0 0 0 0 0 0 0 0 0 0 0 0 0 0 0 0 0 0 0 0 0 0 0 0 0 0 0 0 0 0 0 0 0
0 0 0 0 0 0 0 0 0 0 0 0 0 0 0 0 0 0 0 0 0 0 0 0 0 0 0 0 0 0 0 0 0 0 0 0 0 0 0 0 0 0 0
0 0 0 0 0 0 0 0 0 0 0 0 0 0 0 0 0 0 0 0 0 0 0 0 0 0 0 0 0 0 0 0 0 0 0 0 0 0 0 0 0 0 0
0 0 0 0 0 0 0 0 0 0 0 0 0 0 0 0 0 0 0 0 0 0 0 0 0 0 0 0 0 0 0 0 0 0 0 0 0 0 0 0 0 0 0
Wind_Speed
8 8 8 9 11 10 10 10 9 6 4 3 2 2 2 2 2 2 4 5 5 5 5 3 4 3 3 3 3 2 2 2 1 0 2 2 1 2 2 3 4 5 5
10 11 11 11 12 12 11 10 9 7 5 3 2 2 2 2 2 2 2 4 5 5 5 5 4 3 3 3 3 3 2 2 2 2 1 2 3 2 2 3 4 5 4
18 15 13 12 13 13 11 9 8 7 5 3 2 2 1 1 0 1 2 3 5 5 4 5 4 4 4 4 4 4 4 3 2 3 3 2 3 2 3 2 3 5 4
14 12 11 11 12 10 8 7 7 7 5 4 3 3 2 2 2 2 2 2 3 3 3 4 4 4 3 4 5 5 4 4 3 2 2 3 3 2 2 3 2 3 4
9 9 9 11 8 7 7 7 7 6 4 4 4 4 3 1 0 1 1 1 2 3 3 2 2 3 3 4 4 4 4 4 4 3 2 2 1 1 2 1 3 3 2
5 6 7 10 9 8 7 7 7 5 4 5 6 5 4 3 3 3 3 3 3 3 4 3 2 1 0 2 4 4 5 4 4 3 3 3 2 2 2 2 1 2 2
9 10 11 10 9 8 7 6 7 6 6 7 7 6 4 4 4 3 3 3 2 1 2 1 2 1 2 2 3 4 4 5 4 4 3 3 3 3 3 3 1 0 1
8 10 11 11 8 6 5 6 6 6 7 7 6 6 5 3 3 3 3 3 1 0 1 2 2 2 2 2 2 2 4 4 5 5 5 3 2 2 3 3 3 1 1
8 7 8 9 8 6 4 4 6 6 7 6 6 5 5 4 4 4 3 2 1 1 2 2 2 2 1 1 1 1 3 3 4 5 5 4 3 2 2 2 3 4 2
9 8 7 7 6 5 5 5 5 6 6 6 4 3 3 3 4 4 4 3 3 3 3 3 3 3 3 3 2 1 2 3 4 4 5 4 3 2 2 2 2 3 3
8 7 7 6 6 6 6 6 6 7 6 6 4 4 3 3 4 4 4 4 4 4 4 4 4 4 4 4 3 3 2 1 3 3 5 5 4 3 2 2 2 2 3
5 6 6 6 6 5 5 5 5 6 5 5 5 3 3 3 4 4 3 3 4 4 4 5 5 5 4 4 4 3 3 2 1 1 3 3 3 3 3 3 3 2 2
3 4 5 5 4 4 4 4 4 4 4 4 4 4 3 3 3 3 3 3 4 5 5 5 5 5 4 4 4 3 4 5 5 5 5 3 3 3 2 3 3 2 2
1 2 3 3 3 3 2 3 3 3 3 4 3 3 2 2 2 3 4 4 5 5 5 5 5 5 5 5 5 5 5 6 7 7 7 7 5 4 3 2 2 2 2
1 1 0 1 1 1 1 2 2 2 2 3 2 1 1 2 3 4 5 5 5 5 5 5 6 6 5 6 6 6 6 6 7 7 7 8 9 9 6 3 2 2 2
3 1 1 1 1 1 1 1 1 1 2 2 2 2 3 4 4 3 4 5 5 4 5 5 6 7 6 10 11 7 6 6 6 6 6 6 8 8 9 10 8 5 3
5 4 3 1 2 2 2 2 1 2 3 3 3 4 4 4 4 3 4 4 3 3 3 4 5 5 7 11 10 10 6 6 6 5 5 5 6 7 5 6 7 8 8
3 4 4 3 1 2 2 3 3 4 4 4 3 3 4 4 4 4 4 2 1 2 1 1 2 3 5 8 9 9 6 6 5 5 5 5 6 7 6 5 5 5 5
2 3 3 2 1 2 3 4 4 4 4 3 2 2 3 3 3 3 3 1 0 1 1 1 2 1 2 5 6 7 4 4 5 4 4 5 6 10 10 7 5 5 5
3 2 2 3 4 3 3 5 4 4 3 2 2 2 2 3 4 4 3 1 1 2 3 2 2 2 1 2 5 7 3 3 2 3 3 4 4 6 8 5 4 5 4
3 1 1 3 4 3 4 6 5 4 2 2 2 2 2 3 4 4 3 1 1 2 1 1 2 2 3 2 4 5 3 2 1 1 2 2 3 5 6 4 2 2 3
3 2 2 2 2 3 4 6 5 2 1 2 3 3 3 3 4 3 3 1 1 2 2 1 2 2 3 3 4 5 4 4 3 2 2 3 4 6 7 3 4 4 4
2 2 2 2 1 1 3 5 4 2 2 2 3 4 3 3 3 3 3 3 3 2 2 2 2 3 2 2 5 5 5 6 3 3 5 5 5 6 5 7 8 4 2
2 2 2 2 1 1 2 3 4 4 3 3 3 2 2 3 4 4 4 4 3 3 2 2 3 4 2 2 2 2 2 2 2 1 3 4 5 4 4 5 5 2 1
2 2 2 1 1 1 1 1 0 2 3 3 2 1 1 2 2 2 3 3 1 2 1 1 2 3 3 3 4 4 3 3 2 1 2 3 3 4 4 4 4 3 1
2 2 2 1 1 1 1 1 1 1 1 1 1 0 1 1 1 1 2 3 3 5 4 3 2 3 5 3 2 3 3 2 1 2 1 2 2 3 3 4 4 3 2
Wind_Direction
196 179 173 160 153 150 148 152 155 161 155 154 159 154 185 209 207 209 208 194 191 184 175 177 184 171 172 191 193 182 210 234 188 152 311 325 346 16 356 342 336 331 325
184 178 168 160 157 155 155 159 160 159 159 166 172 171 173 198 208 227 232 203 187 177 175 178 186 186 182 193 195 185 185 227 187 176 225 309 316 313 339 352 354 345 340
187 182 170 166 161 161 165 171 172 160 153 153 148 131 105 60 348 251 235 209 187 182 179 185 188 192 184 198 208 200 190 210 231 196 174 199 252 281 313 342 358 354 351
191 180 166 163 167 168 164 165 161 142 135 133 127 135 151 186 229 233 226 214 186 172 173 186 193 194 193 204 215 210 200 189 220 236 215 204 191 196 286 321 346 357 1
187 174 160 156 150 144 136 126 119 118 120 114 107 108 117 158 171 88 99 100 74 75 85 102 154 177 195 213 224 221 213 197 195 200 205 214 215 181 170 281 326 347 351
139 114 115 122 118 117 116 113 108 103 99 90 80 86 100 110 99 89 97 90 81 59 51 47 34 49 196 229 233 232 225 210 195 193 187 182 185 197 175 179 251 306 317
114 114 112 109 111 116 116 109 105 96 87 80 69 65 72 88 90 92 100 102 92 63 24 357 322 308 285 264 245 234 230 211 192 185 188 191 197 180 161 145 158 258 308
95 107 111 108 106 104 109 110 110 103 89 81 73 63 65 70 64 67 89 90 97 139 295 303 297 284 271 259 240 232 233 215 200 191 184 187 204 183 167 155 142 122 328
73 83 93 101 107 110 107 117 120 106 97 91 82 69 67 72 70 65 65 59 30 320 324 322 332 352 11 4 316 240 240 220 206 196 190 187 197 187 164 150 151 151 175
48 59 64 73 85 102 108 104 105 106 104 98 88 84 74 75 75 69 55 34 7 4 2 353 355 2 7 4 356 309 277 235 216 195 192 197 188 176 162 147 154 158 158
26 36 45 56 74 85 94 98 99 100 97 97 90 81 73 77 76 72 65 61 51 41 31 22 20 17 12 6 2 343 321 268 228 205 193 203 187 172 172 153 152 159 155
18 23 28 43 57 70 84 97 103 105 105 104 97 88 83 80 79 82 85 78 57 34 31 34 36 32 23 10 3 351 2 26 64 184 177 196 179 167 162 157 164 161 163
27 23 21 27 37 52 68 83 97 106 106 103 97 86 75 73 75 79 79 71 63 48 42 47 40 27 15 8 7 21 43 55 57 65 79 74 101 110 123 150 161 167 161
74 46 18 9 16 34 66 93 90 91 97 94 92 82 58 48 47 50 60 76 76 61 46 42 38 32 25 24 33 49 58 61 59 59 63 60 62 68 90 109 136 157 154
82 91 356 324 343 4 31 112 116 107 95 91 85 61 26 38 52 54 66 81 82 73 59 51 39 30 33 32 43 48 56 62 62 56 54 55 60 57 58 73 88 135 139
14 17 323 256 249 240 223 153 149 160 144 129 114 85 65 54 48 53 74 84 86 77 66 58 50 39 38 44 50 54 53 54 59 57 48 45 42 46 56 60 59 69 112
6 1 344 286 232 208 183 160 140 119 122 118 93 71 56 45 27 26 57 76 88 87 71 58 57 48 44 55 57 60 59 55 51 50 48 46 31 33 40 53 52 47 51
350 343 339 335 274 189 160 136 113 104 100 90 71 48 32 21 6 1 8 23 67 102 98 73 69 57 44 56 69 79 68 61 53 53 59 57 34 26 43 50 44 30 20
288 306 317 330 43 133 144 129 118 106 92 80 52 9 3 353 337 321 304 312 24 232 233 199 154 107 34 46 86 105 79 63 47 41 51 66 56 45 55 57 48 32 8
256 297 348 53 65 62 103 114 110 99 83 49 359 327 323 309 297 292 285 263 188 208 215 214 203 179 167 58 93 131 106 83 42 19 23 48 75 68 66 68 59 38 354
225 239 66 78 76 66 84 92 85 76 68 31 350 338 320 297 290 290 282 258 122 98 131 201 242 221 207 143 104 132 140 155 154 3 342 330 8 49 57 81 84 24 342
208 197 131 101 99 99 99 95 90 77 56 29 10 1 342 330 326 314 300 309 85 77 60 28 321 281 240 185 150 132 135 158 164 219 274 288 324 358 6 13 345 3 25
188 182 145 111 66 90 123 126 129 122 83 53 23 9 20 27 11 24 27 20 29 41 23 13 320 294 265 209 178 149 127 134 154 230 260 281 323 349 349 338 337 354 41
123 114 116 111 27 13 74 124 144 139 116 86 59 38 50 55 44 44 43 35 21 13 12 6 335 315 291 192 174 179 175 168 166 216 316 342 351 355 343 342 346 345 199
123 124 135 151 234 319 20 36 138 131 119 113 86 66 92 109 98 81 70 68 49 52 41 6 350 325 295 254 204 187 199 201 199 134 28 9 353 346 342 345 341 332 300
165 165 181 206 236 243 258 264 261 225 134 110 117 141 131 128 146 128 90 57 61 34 30 4 316 301 286 265 208 196 189 177 146 90 18 313 303 299 303 316 319 312 291